Vertical_Velocity
-2 -2 2 0 1 -1 3 -4 -3 -8 -1 -5 -3 -2 -5 -7 2 2 -1 0 -1 4 -1 -0 -0 3 1 3 -2 2 6 1 -2 2 -0 3 16 5 -0 -6 13 7 0 5
0 1 1 -0 -2 0 0 -0 2 1 -2 -4 -3 2 0 -3 4 2 5 -5 -2 1 8 -5 -3 -1 -1 -3 -6 4 6 3 3 3 3 0 7 14 11 5 3 -1 8 5
-3 0 2 5 -6 -1 -1 -0 -3 -1 -12 -1 -1 -0 -3 -2 -1 -4 -3 -0 -3 -2 3 2 4 3 -1 -2 2 0 -1 -2 4 8 8 6 3 -4 -3 3 9 8 4 4
-2 -1 4 -21 -1 1 -0 -4 0 1 -0 -2 -2 -1 -0 3 -4 -2 1 1 2 0 -0 -0 1 3 4 5 6 2 2 4 3 -2 -4 -1 -2 2 -1 0 7 9 6 2
-2 -0 -6 9 -3 -2 -4 -9 -2 -2 -0 -0 1 1 1 2 5 3 -3 1 2 -0 -1 -2 -0 -0 1 3 5 6 5 2 0 1 0 -1 3 1 2 9 10 4 4 1
0 1 -2 -6 -5 -0 -1 -5 -1 -2 -1 -1 1 -2 -6 -1 2 -5 -1 -2 -2 1 -1 1 1 1 0 -1 -3 -3 -2 -2 -1 2 3 -1 1 -1 3 10 2 1 4 -2
1 -0 -8 -5 -3 5 0 -24 -0 1 -1 -0 -3 -8 -1 -2 -0 4 3 -1 -1 2 3 2 2 2 1 2 2 2 1 1 0 -0 -1 1 2 5 -0 -1 1 2 4 2
-0 0 -9 -1 -5 -8 -12 -1 2 1 1 -1 1 -1 -1 -0 1 -0 -2 -2 2 1 0 1 1 1 2 2 2 1 2 2 1 0 3 4 4 4 6 4 3 3 2 6
-11 -15 -7 -2 -1 0 -2 1 3 -2 1 5 -1 -1 -0 -0 3 1 1 0 1 -1 -3 0 1 2 4 1 -0 1 3 3 3 4 4 7 4 4 1 2 6 8 5 0
-2 -5 -3 -2 0 -13 7 -0 7 -3 -4 2 4 5 3 -1 2 2 2 0 0 1 2 1 1 -1 1 0 1 1 0 1 3 3 2 1 4 5 8 7 8 1 2 1
-3 -4 -0 -4 0 -9 -3 5 4 4 0 1 -1 -3 -1 -1 4 3 1 2 3 0 0 0 1 0 3 1 0 -2 -1 1 2 3 4 4 3 1 3 -0 -2 -1 2 2
-8 -7 -3 -9 -1 -1 3 0 1 5 -4 1 -0 1 6 5 3 2 -2 3 3 3 3 1 3 0 0 1 4 2 -3 -2 -2 -1 -1 1 1 -2 -5 -6 -8 -5 3 4
-5 7 2 -8 2 -2 4 -0 -5 4 1 1 8 6 -0 -0 2 0 1 3 3 1 2 3 2 -2 3 3 4 3 4 3 -0 -3 -6 -8 -8 -5 1 4 -1 -0 -1 -3
3 6 5 1 -2 0 4 1 2 1 1 -0 1 5 1 -1 3 6 5 4 5 3 -0 -0 0 -2 2 5 -0 -5 -2 0 -2 -3 -2 0 -0 -2 -3 -2 -2 -2 -2 1
-3 5 2 -2 1 2 5 7 -0 -1 4 2 5 3 9 -0 1 3 4 3 2 2 1 4 1 -1 1 1 0 0 1 1 1 1 -0 0 1 1 0 -0 1 1 -0 1
5 4 3 0 1 1 2 2 -4 2 5 2 2 4 3 3 1 1 3 3 2 -1 1 1 -1 0 1 1 0 0 0 1 1 0 1 -0 -2 -1 -1 -0 -1 0 1 2
-2 4 4 -0 0 1 0 2 1 -1 0 3 1 1 1 1 1 2 2 4 2 -1 1 1 -1 0 -1 -1 -0 -1 -0 -0 -1 -2 -2 -1 -2 -2 -1 -0 0 0 0 1
4 3 2 3 0 -1 -1 1 2 1 -1 1 2 1 -0 3 -3 -0 0 2 1 -1 0 -0 0 -1 -1 -1 -1 -1 -1 -2 -2 -1 0 -0 0 0 -0 0 1 1 1 2
9 -1 2 1 1 0 -1 -0 2 3 2 3 1 -1 1 1 2 1 2 -2 -2 -1 -0 1 1 0 -0 -2 -2 -2 -1 -1 -1 -1 -1 -0 0 0 0 1 1 1 1 0
5 2 0 -1 1 6 -2 2 1 -2 1 4 2 -1 -3 -0 2 -0 5 -6 -1 -2 0 -0 0 -1 -1 -2 -2 -3 -3 -2 -1 -1 -1 -1 -0 -1 -0 0 1 -0 -1 -0
9 1 0 1 -2 0 4 2 -1 0 4 6 -1 -1 -2 1 0 2 -2 -6 1 1 1 0 -1 -2 -2 -2 -2 -2 -1 -1 -2 -1 -2 -2 -1 -0 -0 -1 -1 -1 -0 -0
6 3 1 1 1 -1 4 3 2 -1 -0 1 -1 -1 -2 -2 -0 -3 -0 -3 -0 2 -0 -2 -2 -1 -0 0 -0 -2 -2 -1 -2 -2 -2 -1 -2 -2 -2 -1 -1 -1 -0 1
1 3 -1 0 2 -0 1 2 2 1 -3 0 -0 -1 -2 -3 0 -1 -5 3 0 -1 -2 -1 -0 -0 -1 -1 -2 -2 -3 -3 -3 -2 -1 -2 -1 -1 -1 -1 -0 1 1 1
3 4 0 5 5 0 -7 7 2 1 -2 0 -0 2 1 -2 -2 2 -2 -3 -2 0 -2 -1 -1 -1 -2 -3 -3 -2 -3 -1 -0 1 1 2 2 2 1 -0 -1 -1 -1 -0
3 1 3 2 -3 -2 -0 3 -2 -0 -1 -1 0 1 1 -1 -2 -4 -1 -1 -3 -1 -1 -0 -1 -2 -3 -3 -2 -1 0 1 -0 -1 -2 -3 -3 -3 -2 -1 -1 -2 -2 -0
0 -0 1 1 -3 -1 -1 1 -5 -0 0 -3 -2 -2 -3 -2 -3 -2 -1 1 1 -1 -0 -1 -4 -3 -1 -1 -2 -1 -2 -3 -3 -3 -3 -1 -1 -1 -0 -1 -2 -2 -1 -1
1 1 -1 -2 0 -1 -1 -1 -2 -4 -1 -1 -5 -1 -2 -1 1 2 1 -1 -0 -2 -3 -2 0 -1 -2 -3 -3 -3 -3 -3 -2 -2 -1 -1 -1 -2 -3 -2 -1 -1 -0 -0
Height
1401 1402 1405 1408 1409 1407 1407 1411 1422 1421 1424 1417 1411 1409 1406 1406 1408 1411 1411 1413 1414 1416 1418 1420 1421 1424 1426 1428 1431 1434 1436 1440 1444 1447 1451 1452 1453 1454 1458 1462 1463 1464 1467 1470
1404 1403 1404 1412 1410 1404 1403 1404 1405 1407 1412 1400 1397 1399 1402 1401 1400 1403 1406 1408 1409 1412 1414 1416 1418 1420 1421 1423 1426 1429 1432 1435 1439 1441 1443 1445 1447 1448 1449 1453 1455 1459 1462 1466
1412 1401 1404 1419 1407 1402 1398 1397 1401 1412 1402 1393 1396 1395 1396 1395 1398 1399 1402 1405 1407 1407 1409 1411 1414 1415 1416 1419 1421 1425 1429 1432 1434 1435 1437 1440 1444 1446 1447 1450 1453 1454 1458 1461
1422 1410 1417 1399 1393 1392 1391 1391 1394 1392 1390 1389 1390 1388 1391 1392 1393 1396 1399 1402 1405 1406 1407 1408 1411 1413 1415 1416 1418 1422 1425 1428 1430 1433 1436 1439 1440 1442 1445 1446 1447 1448 1452 1456
1420 1419 1399 1389 1388 1388 1390 1393 1384 1387 1386 1385 1389 1389 1390 1390 1393 1395 1398 1401 1403 1405 1406 1408 1409 1411 1413 1415 1417 1420 1423 1426 1429 1431 1433 1436 1437 1438 1440 1441 1444 1447 1449 1453
1424 1425 1415 1391 1380 1376 1376 1398 1378 1381 1382 1382 1386 1401 1393 1390 1392 1396 1398 1400 1402 1403 1405 1407 1408 1411 1414 1416 1417 1420 1422 1424 1427 1429 1430 1431 1433 1436 1438 1440 1442 1445 1448 1451
1418 1421 1411 1382 1383 1375 1396 1401 1376 1374 1377 1379 1383 1383 1382 1387 1391 1394 1396 1398 1400 1402 1405 1407 1409 1412 1413 1415 1417 1419 1422 1424 1426 1428 1430 1432 1434 1435 1436 1438 1441 1445 1448 1450
1422 1427 1420 1382 1379 1384 1385 1377 1375 1375 1375 1377 1377 1379 1382 1386 1389 1391 1394 1397 1400 1402 1405 1408 1410 1412 1413 1415 1417 1419 1421 1423 1425 1427 1429 1431 1433 1435 1437 1439 1442 1444 1446 1449
1403 1398 1379 1377 1377 1377 1379 1378 1374 1373 1374 1372 1373 1377 1380 1385 1389 1391 1395 1397 1400 1403 1406 1408 1410 1412 1413 1415 1417 1420 1421 1423 1425 1426 1429 1431 1435 1438 1440 1441 1443 1444 1447 1448
1389 1379 1375 1372 1374 1376 1376 1376 1373 1373 1374 1375 1375 1378 1380 1386 1389 1392 1395 1397 1400 1402 1404 1407 1410 1412 1414 1415 1418 1420 1421 1424 1426 1428 1430 1433 1436 1439 1441 1443 1444 1444 1446 1447
1381 1375 1370 1368 1368 1369 1369 1369 1372 1372 1374 1375 1376 1378 1382 1385 1390 1392 1394 1397 1400 1400 1402 1406 1409 1411 1414 1416 1418 1421 1424 1427 1429 1431 1434 1435 1437 1439 1440 1441 1443 1445 1447 1448
1380 1365 1367 1363 1363 1364 1363 1365 1366 1368 1374 1374 1376 1377 1381 1385 1389 1391 1393 1396 1398 1400 1403 1406 1409 1411 1415 1419 1422 1424 1426 1428 1431 1432 1434 1435 1435 1437 1439 1442 1444 1445 1444 1443
1367 1364 1362 1363 1363 1360 1361 1362 1363 1364 1365 1370 1372 1374 1381 1383 1387 1388 1392 1396 1398 1401 1404 1408 1411 1415 1419 1422 1424 1425 1426 1427 1429 1430 1433 1436 1439 1439 1439 1439 1440 1441 1440 1438
1365 1364 1363 1361 1362 1363 1362 1363 1363 1363 1364 1368 1372 1377 1378 1380 1385 1388 1392 1397 1400 1403 1407 1411 1414 1417 1421 1424 1424 1426 1429 1431 1432 1433 1434 1435 1436 1436 1437 1437 1436 1436 1435 1435
1365 1359 1356 1360 1364 1364 1364 1364 1363 1365 1367 1368 1374 1374 1378 1381 1387 1391 1396 1402 1406 1408 1412 1415 1418 1421 1425 1427 1428 1430 1430 1431 1432 1433 1434 1434 1435 1435 1435 1434 1434 1434 1433 1433
1359 1358 1358 1360 1363 1364 1364 1364 1364 1367 1368 1371 1374 1377 1381 1386 1391 1397 1403 1408 1410 1412 1417 1419 1421 1424 1427 1428 1429 1430 1431 1431 1432 1432 1433 1433 1433 1434 1433 1433 1432 1431 1430 1430
1354 1359 1359 1359 1361 1363 1366 1367 1369 1372 1375 1377 1380 1385 1389 1393 1398 1404 1409 1413 1415 1417 1420 1422 1424 1427 1429 1430 1431 1431 1432 1432 1432 1432 1432 1432 1432 1432 1431 1430 1429 1427 1426 1425
1347 1352 1355 1357 1360 1363 1368 1372 1374 1377 1380 1384 1387 1392 1396 1401 1404 1410 1414 1417 1419 1421 1424 1427 1429 1430 1431 1432 1432 1432 1432 1432 1432 1432 1432 1432 1431 1430 1429 1427 1426 1425 1423 1422
1348 1350 1356 1360 1365 1367 1370 1374 1378 1382 1387 1391 1395 1398 1403 1407 1411 1414 1418 1421 1424 1426 1430 1431 1432 1432 1432 1433 1433 1433 1433 1433 1432 1432 1431 1431 1429 1428 1427 1425 1423 1422 1420 1418
1354 1355 1360 1363 1369 1371 1373 1379 1384 1388 1395 1398 1398 1402 1407 1413 1417 1420 1422 1423 1428 1431 1434 1435 1435 1434 1434 1434 1434 1433 1433 1432 1431 1430 1429 1428 1427 1425 1424 1423 1420 1418 1416 1414
1360 1362 1365 1367 1373 1378 1381 1385 1390 1394 1399 1402 1404 1408 1412 1418 1422 1425 1426 1427 1433 1435 1436 1436 1436 1436 1435 1434 1433 1433 1432 1431 1430 1428 1427 1426 1424 1423 1421 1419 1417 1415 1412 1410
1368 1367 1370 1375 1379 1384 1390 1394 1397 1400 1405 1408 1411 1415 1419 1423 1426 1429 1432 1434 1437 1439 1438 1438 1437 1437 1436 1435 1433 1432 1431 1429 1428 1427 1425 1423 1422 1420 1418 1416 1414 1412 1409 1406
1371 1374 1377 1383 1385 1388 1396 1401 1405 1408 1411 1416 1418 1421 1424 1427 1431 1432 1434 1439 1439 1440 1440 1440 1439 1437 1436 1434 1433 1431 1430 1428 1427 1425 1423 1421 1419 1417 1415 1413 1410 1407 1404 1401
1379 1383 1387 1391 1394 1397 1402 1410 1413 1416 1419 1423 1425 1428 1430 1432 1434 1437 1439 1441 1442 1442 1441 1440 1438 1437 1435 1433 1432 1430 1429 1427 1425 1423 1421 1419 1416 1413 1410 1407 1405 1402 1399 1396
1389 1392 1396 1398 1401 1406 1411 1415 1417 1422 1425 1428 1430 1433 1435 1436 1438 1441 1442 1443 1443 1442 1440 1439 1437 1436 1434 1433 1431 1429 1427 1425 1422 1420 1418 1416 1413 1411 1408 1404 1401 1398 1395 1391
1397 1400 1402 1406 1410 1414 1417 1421 1422 1427 1430 1431 1434 1437 1439 1440 1442 1443 1443 1443 1442 1441 1440 1439 1437 1436 1434 1432 1430 1428 1426 1424 1422 1420 1417 1414 1411 1408 1405 1401 1398 1394 1391 1387
1404 1407 1410 1414 1418 1421 1424 1426 1428 1430 1433 1435 1436 1441 1442 1443 1443 1443 1443 1443 1442 1440 1439 1438 1436 1435 1433 1431 1429 1427 1425 1423 1420 1418 1415 1412 1409 1406 1403 1399 1395 1391 1387 1383